Showing default

STARONE C3, 38991

Orbit data source: Space-Track

STARONE C3, 38991 is a payload satellite owned by Star One (BR) in GEO that was launched on Sat, 10 Nov 2012 UTC via an ARIANE 5ECA launch vehicle from the French Guiana (FRGUI). Payload-class satellites include a variety of spacecraft equipped with specific instruments for various scientific and technological missions. These include communications satellites like Starlink; space stations such as the ISS; scientific satellites like the Hubble; Earth observation satellites from companies like Planet Labs, Umbra, and HawkEye 360; GPS; miniature CubeSats for education and research; and military/defense satellites.

Loading next visibility...
Identifier
38991, 2012-062A
Orbit
GEO
Country
Flag of UnknownUnknown / BRAZ
Related business
Manufacturer
OSC
Mission
Operational Commercial Communications
Bus & Motor
STAR-2.4E, IHI
Mass
3,226 kg wet, ~1,530 kg dry
Launch date (UTC)
2012-11-10 (13 years ago)
Launch vehicle
ARIANE 5ECA
Launch site
French Guiana (FRGUI)
Object type
Payload
Rocket body
Debris
Shape & HBR
Box + 2 Pan, 11.5 m
Radar Cross Section
29.105 m², Large (>1 m²)

Expand to show TLE details & history
Last TLE update: 9 hours ago

TLE from 9 hours ago
0 STARONE C3
1 38991U 12062A   25305.51659664  .00000000  00000-0  00000-0 0  9998
2 38991   0.0172 261.5800 0002349 335.0793 275.3572  1.00270468 47473
Epoch: 2025-11-01T12:23Z
TLE epoch observation values (Epoch: 2025-11-01T12:23:53.949Z)
Latitude
-0.03649°
Longitude
-75.06877°
Altitude
35,785.512 km
Speed
3.075 km/s
True Right ascension
10h 07m 48s
True Declination
0° 02' 11"
Sunlit
Object was in daylight at epoch
Visualization orbit readout
Latitude
Unknown
Longitude
Unknown
Altitude
Unknown
Speed
Unknown
Apparent Right ascension
Unknown
Apparent Declination
Unknown
Sunlit
N/A
Visualization observer readout
Local Sidereal Time
17:32:44
Azimuth
Unknown
Elevation
Unknown
Doppler factor
Unknown
Orbital elements
Apogee altitude
35,797.939 km
Perigee altitude
35,778.13 km
Semi-major axis
42,166.172 km
Eccentricity
0.00023
Inclination
0.0172°
RAAN
261.58°
Arg. of periapsis
335.0793°
True anomaly
275.3304°
Mean anomaly
275.3572°
Eccentric anomaly
275.3438°
Mean motion
0.25067 °/min
Orbital period
1,436.17 mins
BSTAR
0
Loading maneuver chart data...
Computing Atmospheric mass density...
Loading historical data...
Loading historical data...
Loading historical data...
Loading historical data...
Loading historical data...
Loading historical data...
Loading historical data...
Other satellites on launch #62 in the year 2012 (2012-11-10 UTC)

Documentation

Showing up to 5 results
|